Defiance, OH

12:39 PM EST on February 14, 2016 (GMT -0500)
Defiance Memorial

Weather History for KDFI - August, 2012

Change the Weather History Date:

Monday, August 13, 2012

  Actual Average Record
Temperature  
Mean Temperature 68 °F -  
Max Temperature 75 °F 81 °F 98 °F (1936)
Min Temperature 61 °F 57 °F 46 °F (1946)
Cooling Degree Days 3    
Growing Degree Days 18 (Base 50)    
Moisture  
Dew Point 60 °F    
Average Humidity 76    
Maximum Humidity 93    
Minimum Humidity 60    
Precipitation  
Precipitation 0.05 in - - ()
Sea Level Pressure  
Sea Level Pressure 29.98 in    
Wind  
Wind Speed 1 mph (NE)    
Max Wind Speed 6 mph    
Max Gust Speed -    
Visibility 10 miles    
Events Rain    
Averages and records for this station are not official NWS values.
T = Trace of Precipitation, MM = Missing Value Source: NWS Daily Summary

Daily Weather History Graph

Daily Weather History Graph

Search for Another Location

Airport or City:

Trip Planner

Search our weather history database for the weather conditions in past years. The results will help you decide how hot, cold, wet, or windy it might be!

Date:

Astronomy

Aug. 13, 2012 Rise Set
Actual Time 6:45 AM EDT 8:38 PM EDT
Civil Twilight 6:15 AM EDT 9:08 PM EDT
Nautical Twilight 5:39 AM EDT 9:44 PM EDT
Astronomical Twilight 4:59 AM EDT 10:24 PM EDT
Moon 2:46 AM EDT (8/13) 5:51 PM EDT (8/13)
Length of Visible Light 14h 53m
Length of Day
13h 53m
Waning Crescent, 16% of the Moon is Illuminated
Aug 13
Waning Crescent
Aug 17
New
Aug 24
First Quarter
Aug 31
Full
Sep 8
Last Quarter

Hourly Weather History & Observations

Time (EDT) Temp. Dew Point Humidity Pressure Visibility Wind Dir Wind Speed Gust Speed Precip Events Conditions
12:53 AM 61.0 °F 59.0 °F 93% 30.01 in 10.0 mi Calm Calm - N/A   Clear
1:53 AM 62.1 °F 59.0 °F 90% 30.01 in 10.0 mi Calm Calm - N/A   Clear
2:53 AM 63.0 °F 60.1 °F 90% 30.00 in 10.0 mi Calm Calm - N/A   Clear
3:53 AM 63.0 °F 60.1 °F 90% 30.00 in 10.0 mi Calm Calm - N/A   Clear
4:53 AM 62.1 °F 60.1 °F 93% 30.01 in 10.0 mi Calm Calm - N/A   Clear
5:53 AM 63.0 °F 60.1 °F 90% 30.01 in 10.0 mi Calm Calm - N/A   Partly Cloudy
6:53 AM 62.1 °F 60.1 °F 93% 30.01 in 10.0 mi Calm Calm - N/A   Mostly Cloudy
7:53 AM 64.0 °F 61.0 °F 90% 30.01 in 10.0 mi Calm Calm - N/A   Partly Cloudy
8:53 AM 69.1 °F 59.0 °F 70% 30.01 in 10.0 mi Calm Calm - N/A   Mostly Cloudy
9:53 AM 71.1 °F 57.0 °F 61% 30.00 in 10.0 mi Calm Calm - N/A   Mostly Cloudy
10:53 AM 71.1 °F 59.0 °F 66% 30.00 in 10.0 mi Calm Calm - 0.00 in   Overcast
11:53 AM 71.1 °F 59.0 °F 66% 29.99 in 10.0 mi NNW 4.6 mph - N/A   Mostly Cloudy
12:53 PM 71.1 °F 60.1 °F 68% 29.98 in 10.0 mi NNE 5.8 mph - N/A   Overcast
1:53 PM 72.0 °F 60.1 °F 66% 29.98 in 10.0 mi North 3.5 mph - N/A   Overcast
2:53 PM 73.0 °F 60.1 °F 64% 29.97 in 10.0 mi Calm Calm - N/A   Overcast
3:53 PM 73.0 °F 60.1 °F 64% 29.95 in 10.0 mi East 5.8 mph - N/A   Overcast
4:53 PM 75.0 °F 60.1 °F 60% 29.95 in 10.0 mi East 5.8 mph - N/A   Overcast
5:53 PM 75.0 °F 61.0 °F 62% 29.94 in 10.0 mi East 4.6 mph - N/A   Overcast
6:53 PM 75.0 °F 60.1 °F 60% 29.94 in 10.0 mi East 3.5 mph - N/A   Overcast
7:53 PM 73.0 °F 61.0 °F 66% 29.93 in 10.0 mi East 3.5 mph - N/A   Overcast
8:53 PM 70.0 °F 63.0 °F 78% 29.93 in 10.0 mi North 3.5 mph - N/A   Overcast
9:53 PM 69.1 °F 63.0 °F 81% 29.94 in 10.0 mi ENE 3.5 mph - N/A   Overcast
10:53 PM 69.1 °F 62.1 °F 78% 29.93 in 10.0 mi ENE 4.6 mph - N/A   Overcast
11:53 PM 66.9 °F 64.0 °F 90% 29.94 in 4.0 mi North 3.5 mph - 0.05 in Rain Rain